User: anonymous
Location: Prairie State College
(41.5244°N, 87.6382°W)
Time: 12:24:06
(UTC-05:00)
Language:

Cosmos 1140 Rocket - Orbit

View from above orbital plane
View from above orbital plane
View from above satellite
View from above satellite

Ground track
Ground track

The orbit data is extracted from the following two-line orbital elements,

1 11574U 79089B   14114.19210190  .00000289  00000-0  99473-4 0  7178
2 11574 074.0700 181.1979 0016035 014.2358 006.2782 14.40198957811577
Epoch (UTC): 24 April 2014 04:36:37
Eccentricity: 0.0016035
inclination: 74.0700°
perigee height: 746 km
apogee height: 769 km
right ascension of ascending node: 181.1979°
argument of perigee: 14.2358°
revolutions per day: 14.40198957
mean anomaly at epoch: 6.2782°
orbit number at epoch: 81157

The dashed part of the orbit path shows where the satellite is in the earth's shadow,  

DLR